Location: Burgerwiesen
(48.6500°N, 15.6167°E)
Time: 03:18:47
(UTC+00:00)

CZ-2C R/B - Pass Details

Date: 09 April 2020
Orbit: 785 x 870 km, 98.3° (Epoch: 04 June)

Event Time Altitude Azimuth Distance (km) Brightness Sun altitude
Rises 19:15:47 0° 15° (NNE) 3,290 6.0 -15.3°
Reaches altitude 10° 19:18:07 10° 17° (NNE) 2,357 5.2 -15.6°
Maximum altitude 19:23:19 74° 103° (ESE) 825 2.5 -16.3°
Drops below altitude 10° 19:28:31 10° 189° (S) 2,361 4.8 -17.1°
Sets 19:30:51 0° 191° (S) 3,296 5.5 -17.4°
